This is the latest recevied weather packets stored in our database for station/object BRIVER. If no packets are shown the sender has not sent any weather packets the latest 10 day(s).
| Time | Temp. | Humidity | Pressure | Rain* | Wind** | Luminosity | Snow |
|---|---|---|---|---|---|---|---|
| 1778097627 | 15.56° C | 68% | 1018.3 hPa | 0 mm | - | - | - |
| 1778097327 | 17.22° C | 64% | 1018.4 hPa | 0 mm | - | - | - |
| 1778097028 | 17.78° C | 67% | 1018.3 hPa | 0 mm | - | - | - |
| 1778096789 | 17.22° C | 67% | 1018.2 hPa | 0 mm | - | - | - |
| 1778096728 | 17.22° C | 67% | 1018.2 hPa | 0 mm | - | - | - |
| 1778096427 | 16.67° C | 68% | 1018.3 hPa | 0 mm | - | - | - |
| 1778096248 | 16.67° C | 68% | 1018.2 hPa | 0 mm | - | - | - |
| 1778096127 | 16.67° C | 68% | 1018.3 hPa | 0 mm | - | - | - |
| 1778095828 | 17.22° C | 65% | 1018.5 hPa | 0 mm | - | - | - |
| 1778095709 | 17.22° C | 69% | 1018.4 hPa | 0 mm | - | - | - |
| 1778095528 | 16.67° C | 69% | 1018.5 hPa | 0 mm | - | - | - |
| 1778095228 | 16.67° C | 61% | 1018.4 hPa | 0 mm | - | - | - |
| 1778095169 | 16.67° C | 65% | 1018.4 hPa | 0 mm | - | - | - |
| 1778094928 | 16.67° C | 68% | 1018.4 hPa | 0 mm | - | - | - |
| 1778094627 | 16.11° C | 70% | 1018.4 hPa | 0 mm | - | - | - |
| 1778094328 | 16.67° C | 71% | 1018.6 hPa | 0 mm | - | - | - |
| 1778094089 | 16.67° C | 71% | 1018.7 hPa | 0 mm | - | - | - |
| 1778094028 | 16.67° C | 66% | 1018.6 hPa | 0 mm | - | - | - |
| 1778093728 | 16.67° C | 67% | 1018.7 hPa | 0 mm | - | - | - |
| 1778093551 | 16.67° C | 73% | 1018.7 hPa | 0 mm | - | - | - |
| 1778093428 | 17.22° C | 71% | 1018.8 hPa | 0 mm | - | - | - |
| 1778093128 | 17.22° C | 73% | 1018.8 hPa | 0 mm | - | - | - |
| 1778093009 | 17.22° C | 75% | 1018.8 hPa | 0 mm | - | - | - |
| 1778092828 | 16.67° C | 72% | 1018.8 hPa | 0 mm | - | - | - |
| 1778092528 | 16.67° C | 76% | 1018.8 hPa | 0 mm | - | - | - |
* Rain latest hour (hover to see other rain measurements)
** Current wind speed in m/s (hover to see current wind gust speed)